Vorticity
nan nan nan nan nan nan nan nan nan nan nan nan nan nan nan nan nan nan nan nan nan nan nan nan nan nan nan nan nan nan nan nan nan nan nan nan nan nan nan nan nan nan nan nan nan
nan 6 6 6 7 7 7 7 7 7 7 7 7 8 9 11 14 13 17 16 12 6 4 6 4 5 2 6 8 5 13 8 3 -9 -5 5 6 4 11 12 11 11 4 13 nan
nan 6 6 6 6 7 7 7 7 7 8 7 7 8 9 12 15 21 15 9 8 3 3 1 3 4 2 4 3 5 1 7 20 5 -18 -0 2 6 6 10 20 6 -10 16 nan
nan 6 6 6 6 7 7 6 7 8 8 8 8 10 14 13 6 16 11 7 9 6 7 5 6 4 4 5 7 7 6 5 -3 2 5 5 4 5 5 10 16 9 7 11 nan
nan 6 6 6 7 7 7 7 8 9 8 9 11 14 16 8 12 10 7 9 11 8 7 7 6 5 3 5 5 7 7 7 6 6 7 5 4 5 7 5 18 19 22 2 nan
nan 7 6 7 8 8 8 8 8 9 10 13 14 13 9 3 18 8 3 5 4 7 3 7 6 4 4 5 5 4 6 9 8 7 6 6 8 7 7 7 4 15 20 7 nan
nan 8 7 7 7 7 7 8 9 11 13 17 17 10 8 12 -0 4 9 6 8 3 2 5 6 4 8 8 6 6 5 7 8 8 9 10 10 7 6 7 10 8 6 9 nan
nan 8 9 8 7 6 7 8 9 12 14 18 15 5 5 10 7 13 13 9 7 6 6 6 10 8 6 6 9 10 10 7 8 8 8 11 11 11 12 10 8 4 18 7 nan
nan 8 7 8 7 8 10 9 19 18 16 12 7 4 6 8 13 10 9 6 10 7 2 9 10 10 11 11 10 10 10 7 8 11 8 8 11 12 11 10 14 7 1 7 nan
nan 7 8 7 7 8 18 28 20 18 13 2 7 8 10 3 8 11 11 14 10 9 9 6 6 9 9 6 2 2 3 4 6 7 13 16 9 9 8 5 4 13 6 5 nan
nan 7 8 7 7 10 21 31 20 14 1 -0 12 10 7 9 10 10 10 7 8 10 13 11 5 6 5 5 5 6 6 6 5 4 5 4 7 8 10 15 9 3 7 6 nan
nan 8 8 7 8 21 18 10 9 7 10 13 12 9 5 7 10 14 9 8 7 3 9 6 6 8 6 8 7 8 11 11 11 10 9 10 6 6 8 9 8 5 5 6 nan
nan 7 8 8 24 26 13 6 5 13 16 22 9 5 11 6 9 13 6 4 2 8 11 6 4 12 16 11 9 9 8 8 12 14 12 10 13 14 12 10 7 8 9 9 nan
nan 8 5 22 23 13 8 2 11 13 17 19 12 13 8 7 12 5 6 9 9 7 6 9 10 9 10 11 12 9 10 8 7 10 9 9 18 17 17 17 18 16 10 9 nan
nan 9 14 23 13 5 3 7 12 10 14 14 7 5 7 5 15 12 2 10 7 4 8 3 5 9 7 9 10 12 10 11 10 10 10 11 16 6 9 13 8 7 31 19 nan
nan 5 21 23 9 1 2 12 15 10 13 10 5 10 10 7 0 8 9 4 6 12 12 13 10 11 11 5 5 9 10 14 15 13 11 14 10 9 9 3 6 8 8 16 nan
nan 10 17 9 4 6 13 14 12 8 9 8 4 5 5 10 15 -0 6 7 12 9 4 17 26 16 10 9 16 11 8 9 8 10 5 14 10 13 15 10 6 7 1 16 nan
nan 27 25 6 3 8 11 12 6 10 12 6 4 5 6 14 14 8 6 11 14 5 6 12 9 9 8 6 9 5 11 7 6 3 5 11 14 4 17 23 10 -1 8 15 nan
nan 28 13 18 7 6 12 9 -2 8 10 0 13 17 14 13 4 11 12 10 5 11 11 7 -3 -0 7 11 10 6 8 4 11 9 5 8 8 10 16 15 7 4 9 6 nan
nan 16 22 14 8 7 9 1 4 10 7 9 11 9 9 11 9 6 11 12 14 5 4 6 8 8 12 18 12 10 6 14 13 13 17 10 12 12 6 13 19 18 18 10 nan
nan 12 22 7 5 8 5 1 12 11 9 10 9 8 10 5 6 10 6 10 12 5 5 12 12 9 13 9 4 20 17 12 13 13 11 9 11 7 6 16 14 14 14 10 nan
nan 12 6 6 7 8 8 3 8 9 6 6 8 8 8 10 10 10 11 12 4 4 9 13 15 11 8 9 18 13 9 14 12 6 7 12 -2 1 6 10 10 3 3 13 nan
nan 12 9 9 9 6 10 11 2 8 8 8 10 6 8 10 8 10 4 3 4 7 14 12 7 7 14 12 8 1 7 11 5 4 3 8 8 7 4 1 12 13 10 8 nan
nan 16 17 5 4 7 11 13 14 13 6 6 9 8 11 10 8 10 7 3 3 18 6 3 8 7 2 0 -4 6 13 4 3 3 10 9 5 -1 0 7 13 20 9 14 nan
nan 4 7 10 3 7 13 10 8 17 14 2 10 10 6 6 9 8 11 11 18 9 -7 6 11 10 4 5 6 8 9 13 14 9 2 9 23 9 5 6 -1 1 17 24 nan
nan 6 7 11 10 10 10 8 8 11 6 10 12 4 7 16 15 7 9 10 6 -1 8 9 9 10 11 11 10 9 11 15 15 12 12 18 21 15 5 12 15 13 8 6 nan
nan nan nan nan nan nan nan nan nan nan nan nan nan nan nan nan nan nan nan nan nan nan nan nan nan nan nan nan nan nan nan nan nan nan nan nan nan nan nan nan nan nan nan nan nan
CAPE
1 2 3 4 3 2 1 1 0 0 0 0 0 0 0 0 0 0 0 0 0 0 0 0 0 457 1229 1216 1114 1116 1175 0 0 42 196 164 38 17 12 494 317 68 310 663 832
2 4 4 4 4 3 1 1 0 0 0 0 0 0 0 0 0 0 0 180 53 205 0 0 0 605 901 737 733 613 492 58 62 0 11 490 75 18 4 627 597 404 306 799 853
4 5 5 5 4 3 1 1 0 0 0 0 0 0 0 0 0 0 0 29 97 52 0 0 83 268 184 57 99 157 325 263 303 64 238 309 250 121 0 24 851 269 517 961 815
4 5 5 4 3 3 2 1 1 1 1 1 0 0 0 0 0 0 0 0 167 0 0 0 4 1 0 0 0 0 0 0 0 0 2 54 168 151 0 1 226 187 201 1061 836
1 1 0 0 0 1 2 2 2 0 1 0 0 0 0 0 0 0 1 0 0 0 0 0 0 0 0 0 0 0 0 0 0 0 0 0 0 115 24 0 59 915 753 1153 929
0 0 0 0 0 0 1 1 1 1 0 0 0 0 0 0 0 0 0 0 0 0 0 0 0 0 0 0 0 0 0 0 0 0 0 0 0 3 58 8 35 321 1565 1188 1271
0 0 0 0 0 1 0 0 1 0 0 0 0 0 0 0 0 0 0 0 0 0 0 0 0 0 0 0 0 0 0 0 0 0 0 0 0 0 0 28 26 454 876 1681 1860
0 0 1 2 3 1 0 0 0 0 0 0 0 0 0 0 0 0 0 0 0 0 0 0 0 0 0 0 0 0 0 0 0 0 0 0 0 0 0 15 77 10 518 1369 1850
1 4 3 2 1 0 0 0 0 0 0 0 0 0 0 0 0 0 0 0 0 0 0 0 0 0 0 0 0 0 0 0 0 0 0 0 0 0 0 2 181 179 362 519 1174
3 0 1 2 0 0 0 0 0 0 0 0 0 0 0 0 0 0 0 0 0 0 0 0 0 0 0 0 0 0 0 0 0 0 0 0 0 0 0 0 19 41 25 122 34
2 1 2 0 0 0 0 0 0 0 0 0 0 0 0 0 0 0 0 0 0 0 0 0 0 0 0 0 0 0 0 0 0 0 0 0 0 0 0 0 0 0 52 76 48
2 2 0 0 0 0 0 0 0 0 0 0 0 0 0 0 0 0 0 0 0 0 0 0 0 0 0 0 0 0 0 0 0 0 0 0 0 0 0 0 0 0 0 0 0
0 0 0 0 0 0 0 0 0 0 0 0 0 0 0 0 0 0 0 0 0 0 0 0 0 0 0 0 0 0 0 0 0 0 0 0 0 0 0 0 1 0 0 0 0
0 0 0 0 0 0 0 0 0 0 0 0 0 0 0 0 0 0 0 0 0 0 0 0 0 0 0 0 0 0 0 0 0 0 0 0 0 0 0 19 41 73 18 0 0
0 0 0 0 0 0 0 0 0 0 0 0 0 0 0 0 0 0 0 0 0 0 0 0 0 0 0 0 0 0 0 0 0 0 0 0 0 1 95 256 244 6 71 3 11
0 0 0 0 0 0 0 0 0 0 0 0 0 0 0 0 0 0 0 0 0 0 0 0 0 0 0 0 0 0 0 0 0 0 0 10 24 23 124 177 116 54 40 110 42
0 0 0 0 0 0 0 0 0 0 0 0 0 0 0 0 0 0 0 0 0 0 0 0 0 0 0 0 0 0 0 0 1 2 15 21 59 194 203 85 68 35 1 54 133
0 0 0 0 0 0 0 0 0 0 0 0 0 0 0 0 0 0 0 0 0 0 0 0 0 0 0 0 0 0 0 0 8 5 0 37 31 104 160 20 111 88 34 72 350
0 0 0 0 0 0 0 0 0 0 0 0 0 0 0 0 0 0 0 0 0 0 0 0 0 0 0 0 0 0 0 1 8 1 18 19 78 141 73 27 5 14 34 113 375
0 0 0 0 0 0 0 0 0 0 0 0 0 0 0 0 0 0 0 0 0 0 0 0 0 0 0 0 0 0 0 0 5 64 49 65 61 134 182 276 181 232 118 0 0
0 0 0 0 0 0 0 0 0 0 0 0 0 0 0 0 0 0 0 0 0 0 0 0 0 0 0 0 7 28 59 15 3 82 61 257 122 95 301 741 740 15 0 0 0
0 0 0 0 0 0 0 0 0 0 0 0 0 0 0 0 0 0 0 0 0 0 0 0 0 0 0 0 0 4 75 30 31 231 117 158 180 99 192 413 288 94 0 0 2
0 0 0 0 0 0 0 0 0 0 0 0 0 0 0 0 0 0 0 0 0 0 0 0 0 0 0 0 0 0 2 25 49 32 93 136 196 91 152 83 112 256 35 551 1708
0 0 0 0 0 0 0 0 0 0 0 0 0 0 0 0 0 0 0 0 0 0 1 0 0 0 0 0 0 0 2 22 39 35 86 157 277 310 66 25 150 719 1105 1846 1866
0 0 0 0 0 0 0 0 0 0 0 0 0 0 0 0 0 1 0 0 1 19 0 0 3 2 2 4 2 0 0 0 63 122 224 153 345 412 0 0 0 28 715 1149 1474
0 1 0 0 0 0 0 0 0 0 0 0 0 0 0 5 2 0 0 0 1 0 0 0 4 0 0 0 0 0 0 0 0 23 59 326 716 95 398 103 40 241 523 911 1251
18 2 0 0 0 0 0 0 0 0 0 0 0 0 2 5 0 0 0 0 0 0 0 0 5 2 0 0 1 0 0 5 32 114 278 288 753 683 1241 1164 1183 1114 1007 898 1200